Location: W�rzburg
(49.7529°N, 9.8822°E)
Time: 06:29:53
(UTC+01:00)

ISS - Pass Details

Date: 08 January 2018
Orbit: 402 x 407 km, 51.6° (Epoch: 19 January)

Event Time Altitude Azimuth Distance (km) Brightness Sun altitude
Exits shadow 06:38:55 34° 293° (WNW) 695 -3.2 -15.0°
Maximum altitude 06:40:12 76° 13° (NNE) 423 -3.8 -14.8°
Drops below altitude 10° 06:43:30 10° 100° (E) 1,468 0.4 -14.2°
Sets 06:45:35 0° 102° (ESE) 2,328 2.0 -13.9°
